When you browse on this site, cookies collect data to enhance your experience and personalize the content and advertising you see.
Visit our Privacy Policy to learn more. By continuing to use the site, you agree to this use of cookies and data.
  • In United Kingdom
  • List of Countries
  • For 7 days
  • Water Temperature
  • Weather Map
  • Weather Widgets
  • user-avatar
    Login

    Hourly Weather Herāt

    Today, 20 October, Sunday

    Time Temperature Precipitation Wind Pressure Humidity
    00:00 +11°C° 0 mm 1 mps 680 mmHg 48%
    01:00 +11°C° 0 mm 1 mps 680 mmHg 51%
    02:00 +10°C° 0 mm 1 mps 680 mmHg 53%
    03:00 +10°C° 0 mm 1 mps 680 mmHg 54%
    04:00 +9°C° 0 mm 0 mps 680 mmHg 56%
    05:00 +10°C° 0 mm 0 mps 680 mmHg 45%
    06:00 +11°C° 0 mm 0 mps 681 mmHg 34%
    07:00 +13°C° 0 mm 0 mps 682 mmHg 23%
    08:00 +18°C° 0 mm 1 mps 682 mmHg 20%
    09:00 +21°C° 0 mm 1 mps 683 mmHg 16%
    10:00 +24°C° 0 mm 1 mps 684 mmHg 13%
    11:00 +26°C° 0 mm 1 mps 684 mmHg 12%
    12:00 +27°C° 0 mm 2 mps 683 mmHg 10%
    13:00 +28°C° 0 mm 3 mps 683 mmHg 9%
    14:00 +27°C° 0 mm 3 mps 683 mmHg 9%
    15:00 +27°C° 0 mm 4 mps 683 mmHg 10%
    16:00 +26°C° 0 mm 5 mps 682 mmHg 10%
    17:00 +22°C° 0 mm 5 mps 682 mmHg 14%
    18:00 +19°C° 0 mm 5 mps 682 mmHg 17%
    19:00 +15°C° 0 mm 4 mps 682 mmHg 21%
    20:00 +15°C° 0 mm 4 mps 682 mmHg 22%
    21:00 +14°C° 0 mm 3 mps 682 mmHg 24%
    22:00 +13°C° 0 mm 3 mps 682 mmHg 25%
    23:00 +12°C° 0 mm 3 mps 681 mmHg 26%

    Tomorrow, 21 October, Monday

    Time Temperature Precipitation Wind Pressure Humidity
    00:00 +13°C° 0 mm 2 mps 681 mmHg 27%
    01:00 +12°C° 0 mm 2 mps 681 mmHg 28%
    02:00 +12°C° 0 mm 2 mps 681 mmHg 28%
    03:00 +12°C° 0 mm 2 mps 681 mmHg 29%
    04:00 +12°C° 0 mm 2 mps 681 mmHg 29%
    05:00 +12°C° 0 mm 2 mps 681 mmHg 27%
    06:00 +13°C° 0 mm 2 mps 682 mmHg 26%
    07:00 +14°C° 0 mm 2 mps 683 mmHg 24%
    08:00 +17°C° 0 mm 2 mps 683 mmHg 21%
    09:00 +19°C° 0 mm 3 mps 683 mmHg 18%
    10:00 +21°C° 0 mm 3 mps 684 mmHg 15%
    11:00 +22°C° 0 mm 3 mps 684 mmHg 14%
    12:00 +23°C° 0 mm 4 mps 683 mmHg 13%
    13:00 +25°C° 0 mm 4 mps 683 mmHg 12%
    14:00 +25°C° 0 mm 4 mps 683 mmHg 13%
    15:00 +23°C° 0 mm 5 mps 682 mmHg 13%
    16:00 +22°C° 0 mm 5 mps 682 mmHg 14%
    17:00 +21°C° 0 mm 5 mps 682 mmHg 16%
    18:00 +19°C° 0 mm 5 mps 682 mmHg 17%
    19:00 +16°C° 0 mm 5 mps 682 mmHg 19%
    20:00 +17°C° 0 mm 4 mps 682 mmHg 20%
    21:00 +15°C° 0 mm 4 mps 682 mmHg 22%
    22:00 +14°C° 0 mm 3 mps 682 mmHg 23%
    23:00 +13°C° 0 mm 3 mps 681 mmHg 24%

    Day after tomorrow, 22 October, Tuesday

    Time Temperature Precipitation Wind Pressure Humidity
    00:00 +13°C° 0 mm 3 mps 681 mmHg 25%
    01:00 +12°C° 0 mm 3 mps 681 mmHg 26%
    02:00 +11°C° 0 mm 3 mps 681 mmHg 26%
    03:00 +11°C° 0 mm 3 mps 681 mmHg 27%
    04:00 +10°C° 0 mm 4 mps 680 mmHg 28%
    05:00 +11°C° 0 mm 4 mps 681 mmHg 26%
    06:00 +12°C° 0 mm 4 mps 681 mmHg 25%
    07:00 +13°C° 0 mm 5 mps 682 mmHg 24%
    08:00 +15°C° 0 mm 5 mps 682 mmHg 21%
    09:00 +17°C° 0 mm 6 mps 683 mmHg 19%
    10:00 +21°C° 0 mm 6 mps 683 mmHg 16%
    11:00 +22°C° 0 mm 6 mps 683 mmHg 16%
    12:00 +22°C° 0 mm 7 mps 682 mmHg 15%
    13:00 +23°C° 0 mm 7 mps 682 mmHg 14%
    14:00 +22°C° 0 mm 8 mps 682 mmHg 15%
    15:00 +21°C° 0 mm 9 mps 681 mmHg 15%
    16:00 +19°C° 0 mm 11 mps 681 mmHg 16%
    17:00 +17°C° 0 mm 9 mps 681 mmHg 18%
    18:00 +15°C° 0 mm 8 mps 681 mmHg 20%
    19:00 +12°C° 0 mm 7 mps 681 mmHg 23%
    20:00 +11°C° 0 mm 6 mps 681 mmHg 25%
    21:00 +10°C° 0 mm 5 mps 681 mmHg 26%
    22:00 +10°C° 0 mm 4 mps 681 mmHg 28%
    23:00 +9°C° 0 mm 3 mps 680 mmHg 29%

    23 October, Wednesday

    Time Temperature Precipitation Wind Pressure Humidity
    00:00 +9°C° 0 mm 3 mps 680 mmHg 31%
    01:00 +8°C° 0 mm 2 mps 680 mmHg 32%
    02:00 +7°C° 0 mm 2 mps 680 mmHg 35%
    03:00 +7°C° 0 mm 2 mps 679 mmHg 37%
    04:00 +6°C° 0 mm 2 mps 679 mmHg 40%
    05:00 +7°C° 0 mm 2 mps 680 mmHg 36%
    06:00 +8°C° 0 mm 2 mps 680 mmHg 33%
    07:00 +9°C° 0 mm 2 mps 681 mmHg 30%
    08:00 +13°C° 0 mm 2 mps 681 mmHg 25%
    09:00 +16°C° 0 mm 2 mps 682 mmHg 21%
    10:00 +18°C° 0 mm 2 mps 682 mmHg 17%
    11:00 +20°C° 0 mm 3 mps 682 mmHg 15%
    12:00 +21°C° 0 mm 4 mps 682 mmHg 13%
    13:00 +22°C° 0 mm 5 mps 681 mmHg 12%
    14:00 +21°C° 0 mm 6 mps 681 mmHg 13%
    15:00 +20°C° 0 mm 7 mps 681 mmHg 14%
    16:00 +20°C° 0 mm 8 mps 681 mmHg 16%
    17:00 +16°C° 0 mm 7 mps 681 mmHg 20%
    18:00 +14°C° 0 mm 6 mps 681 mmHg 24%
    19:00 +10°C° 0 mm 5 mps 681 mmHg 28%
    20:00 +10°C° 0 mm 4 mps 681 mmHg 29%
    21:00 +10°C° 0 mm 4 mps 681 mmHg 29%
    22:00 +9°C° 0 mm 3 mps 681 mmHg 30%
    23:00 +8°C° 0 mm 3 mps 681 mmHg 32%

    24 October, Thursday

    Time Temperature Precipitation Wind Pressure Humidity
    00:00 +7°C° 0 mm 2 mps 680 mmHg 34%
    01:00 +6°C° 0 mm 2 mps 680 mmHg 37%
    02:00 +6°C° 0 mm 2 mps 680 mmHg 37%
    03:00 +6°C° 0 mm 2 mps 680 mmHg 37%
    04:00 +5°C° 0 mm 2 mps 680 mmHg 37%
    05:00 +6°C° 0 mm 2 mps 681 mmHg 35%
    06:00 +7°C° 0 mm 2 mps 681 mmHg 32%
    07:00 +8°C° 0 mm 2 mps 682 mmHg 29%
    08:00 +12°C° 0 mm 2 mps 682 mmHg 25%
    09:00 +14°C° 0 mm 2 mps 682 mmHg 20%
    10:00 +17°C° 0 mm 3 mps 683 mmHg 16%
    11:00 +19°C° 0 mm 4 mps 682 mmHg 14%
    12:00 +20°C° 0 mm 4 mps 682 mmHg 12%
    13:00 +21°C° 0 mm 5 mps 682 mmHg 10%
    14:00 +20°C° 0 mm 6 mps 682 mmHg 12%
    15:00 +18°C° 0 mm 7 mps 682 mmHg 13%
    16:00 +17°C° 0 mm 7 mps 681 mmHg 14%
    17:00 +15°C° 0 mm 6 mps 681 mmHg 17%
    18:00 +12°C° 0 mm 5 mps 681 mmHg 20%
    19:00 +8°C° 0 mm 4 mps 681 mmHg 23%
    20:00 +8°C° 0 mm 4 mps 681 mmHg 24%
    21:00 +8°C° 0 mm 3 mps 681 mmHg 25%
    22:00 +7°C° 0 mm 3 mps 681 mmHg 26%
    23:00 +7°C° 0 mm 3 mps 681 mmHg 27%

    25 October, Friday

    Time Temperature Precipitation Wind Pressure Humidity
    00:00 +6°C° 0 mm 2 mps 681 mmHg 28%
    01:00 +5°C° 0 mm 2 mps 680 mmHg 29%
    02:00 +5°C° 0 mm 2 mps 680 mmHg 30%
    03:00 +4°C° 0 mm 2 mps 680 mmHg 32%
    04:00 +4°C° 0 mm 2 mps 680 mmHg 33%
    05:00 +4°C° 0 mm 2 mps 680 mmHg 31%
    06:00 +5°C° 0 mm 2 mps 681 mmHg 28%
    07:00 +6°C° 0 mm 2 mps 681 mmHg 26%
    08:00 +9°C° 0 mm 2 mps 682 mmHg 21%
    09:00 +13°C° 0 mm 2 mps 682 mmHg 17%
    10:00 +16°C° 0 mm 2 mps 682 mmHg 12%
    11:00 +17°C° 0 mm 3 mps 682 mmHg 11%
    12:00 +19°C° 0 mm 4 mps 682 mmHg 9%
    13:00 +20°C° 0 mm 5 mps 682 mmHg 8%
    14:00 +19°C° 0 mm 6 mps 682 mmHg 8%
    15:00 +17°C° 0 mm 6 mps 681 mmHg 9%
    16:00 +17°C° 0 mm 7 mps 681 mmHg 9%
    17:00 +14°C° 0 mm 5 mps 681 mmHg 12%
    18:00 +11°C° 0 mm 4 mps 681 mmHg 15%
    19:00 +8°C° 0 mm 3 mps 680 mmHg 17%
    20:00 +7°C° 0 mm 3 mps 680 mmHg 18%
    21:00 +5°C° 0 mm 3 mps 680 mmHg 20%
    22:00 +6°C° 0 mm 2 mps 680 mmHg 21%
    23:00 +5°C° 0 mm 2 mps 680 mmHg 23%
    Show more